Find Starlink 32488

NORAD ID: 62125 Int'l Des: 2024-222 Owner: SPXS Country: US Constellation: starlink operational
LEOCIRCULAR

現在のビュー

3D地球を読み込み中...

About Starlink 32488

Starlink 32488 (NORAD 62125) is a starlink constellation satellite (v2 mini) launched Nov 27, 2024 by SPXS of US. It operates in LEO, CIRCULAR orbit with a mass of 730.00 kg.

次回通過

Passes for default location (London). Set your location on the main map for personalized predictions.

高度履歴

Loading altitude history...

軌道要素

1 62125U 24222M 26226.32785075 .00003067 00000-0 12092-3 0 9996
2 62125 43.0006 326.2723 0001006 241.8072 118.2678 15.27581105 96752
Epoch: Aug 14, 2026 • Age: 33 hours

現在のステータス

高度 482.6 km
遠地点 / 近地点 N/A
速度 7.63 km/s
衛星直下点 15.61°N, 117.86°E
打ち上げ日 Nov 27, 2024
運用期間 1.7 years
タイプ internet

技術仕様

分類 Payload
質量 730.00 kg
乾燥質量 700.00 kg
総質量 730.00 kg
長さ 0.30 m
直径 4.10 m
スパン 29.00 m
形状 Box + pan
製造者 SPXS
バスタイプ Starlink V2M
フェーズステータス In Orbit
所有者/国 SPXS/US

Most Searched